Racecast

Washington Park Invitational

Washington Park · 5000m · Girls · Compiled · CO

130 runners from 1 division

These divisions were run separately. This is how their times compare, not how they finished — the places and scores below were never contested.

View full meet →

Team scores

Place Team Points 12345 67
1 Denver East (CO) 62 1 8 11 20 22 23 28
2 Grandview (CO) 75 6 9 13 21 26 31 42
3 Denver South (CO) 77 4 14 17 18 24 32 44
4 Northfield (CO) 135 5 7 27 43 53 75
5 Kent Denver (CO) 152 3 12 16 30 91 100
6 Rampart (CO) 203 15 38 40 47 63 66 76
7 Mesa Ridge (CO) 221 2 48 49 55 67 85 88
8 Heritage Christian (CO) 229 10 25 51 56 87 89 92
9 Rangeview (CO) 238 29 39 45 54 71 94 98
10 Denver North (CO) 251 33 41 46 62 69 95
11 Middle Park (CO) 256 34 37 59 61 65
12 Ponderosa (CO) 263 19 36 58 73 77 84
13 Castle View (CO) 340 52 60 70 78 80 86
14 Sand Creek (CO) 348 35 50 81 83 99
15 Lutheran (CO) 350 57 68 72 74 79 82
16 Thomas Jefferson (CO) 440 64 90 93 96 97 101

Not scored, fewer than five finishers: Strasburg (4), George Washington (3), Machebeuf Bishop (3), Denver West (3), KIPP Northeast (Regis Groff) (2), Adams City (2), Northfield (1), George Washington (1), Harrison (1), Front Range Christian (1), DSST: College View (1), Thomas Jefferson (1)

Results

Place Athlete Grade School Time Rating Points Actual race
1 Rosie Mucharsky 9 Denver East (CO) 1 18:36.0 139.9 1 1
2 Elizabeth Carlos 12 Mesa Ridge (CO) 1 19:00.0 137.0 2 2
3 Molly Zann 9 Kent Denver (CO) 1 19:18.0 134.9 3 3
4 Anne Reilly 10 George Washington (WV) 1 19:25.0 134.1 4
5 Sara Wexler 12 Denver South (CO) 1 19:26.0 134.0 4 5
6 Taylor Buese 9 Northfield (MN) 1 19:35.0 133.0 5 6
7 Malia Heien 12 Northfield (MN) 1 19:43.0 7
8 Gema Hernandez 11 Machebeuf Bishop (CO) 1 19:55.0 130.8 8
9 Megan Ericksen 12 Grandview (CO) 1 20:01.0 130.1 6 9
10 Gabriela Kobak 11 Northfield (MN) 2 20:06.0 129.6 7 10
11 Grace Todd 10 Denver East (CO) 2 20:12.0 129.0 8 11
12 Ashlynn Mojica 10 Grandview (CO) 2 20:15.0 128.6 9 12
13 Ainsley Stanton 10 Heritage Christian (IN) 1 20:30.0 127.1 10 13
14 Sophia Shiroff 10 Denver East (CO) 3 20:45.0 125.6 11 14
15 Isa DelCastillo 12 Kent Denver (CO) 2 20:51.0 125.0 12 15
16 Grace Kirkpatrick 11 Grandview (CO) 3 20:54.0 124.7 13 16
17 Olivia Ennis 12 Denver South (CO) 2 20:57.0 124.4 14 17
18 Mikayla Fry 11 Rampart (CO) 1 20:58.0 124.3 15 18
19 Elizabeth Barker 10 Kent Denver (CO) 3 21:12.0 122.9 16 19
20 Elizabeth Jenulis 11 George Washington (WV) 2 21:20.0 122.2 20
21 Grace McClung 12 Denver South (CO) 3 21:29.0 121.3 17 21
22 Olivia Jaquette 11 Denver South (CO) 4 21:29.0 121.3 18 22
23 Liliana Murphy 10 Ponderosa (OR) 1 21:30.0 121.3 19 23
24 Tessa Olson 10 George Washington (WV) 3 21:32.0 121.1 24
25 Bri O'Meara 11 Denver East (CO) 4 21:34.0 120.9 20 25
26 Emma Thomure 12 Grandview (CO) 4 21:38.0 120.5 21 26
27 Sasha Bull 10 Denver East (CO) 5 21:44.0 120.0 22 27
28 Helen Miller 11 Denver East (CO) 6 21:50.0 119.4 23 28
29 Koele Sarti 10 Denver South (CO) 5 21:51.0 119.3 24 29
30 Juliana Lundy 10 Heritage Christian (IN) 2 21:58.0 118.7 25 30
31 Summer Abeyta 10 Grandview (CO) 5 22:01.0 118.4 26 31
32 Quynh MacKenzie 11 Northfield (MN) 3 22:09.0 117.7 27 32
33 Lila Cypers 9 Denver East (CO) 7 22:10.0 117.6 28 33
34 Chloe Wetzel 12 Rangeview (CO) 1 22:12.0 117.5 29 34
35 Sally Carrington 10 Kent Denver (CO) 4 22:21.0 116.7 30 35
36 Julia Pace 10 Grandview (CO) 6 22:23.0 116.5 31 36
37 Sophie Graham 11 George Washington (WV) 1 22:25.0 116.3 37
38 Anna Roush 11 Denver South (CO) 6 22:28.0 116.1 32 38
39 Magdalena Burkholder 10 Denver North (CO) 1 22:28.0 116.1 33 39
40 Sierra Manyak 10 Middle Park (CO) 1 22:38.0 115.2 34 40
41 Elisabeth Delker 11 Machebeuf Bishop (CO) 2 22:46.0 114.6 41
42 Makenzie Baker 11 Sand Creek (MI) 1 22:47.0 114.5 35 42
43 Jordyn Finkelstein 12 Ponderosa (OR) 2 22:51.0 114.2 36 43
44 Josie Nance 9 Middle Park (CO) 2 22:52.0 114.1 37 44
45 Cadence Corby 12 Rampart (CO) 2 22:52.0 114.1 38 45
46 Kyra Vuong 11 Rangeview (CO) 2 22:53.0 114.0 39 46
47 Leila Pizzimenti 9 Rampart (CO) 3 22:54.0 113.9 40 47
48 Juno Gregg 12 Denver North (CO) 2 22:55.0 113.8 41 48
49 Emerson Rohrig 10 Grandview (CO) 7 22:58.0 113.6 42 49
50 Alessi Kwan 10 Northfield (MN) 4 23:02.0 113.3 43 50
51 Emily Hoskins 11 Denver South (CO) 7 23:02.0 113.3 44 51
52 Olivia Washington 9 Rangeview (CO) 3 23:05.0 113.0 45 52
53 Phoebe Fowler 10 Denver North (CO) 3 23:07.0 112.9 46 53
54 Isabelle FRY 9 Rampart (CO) 4 23:07.0 112.9 47 54
55 Jamie Williams 10 Mesa Ridge (CO) 2 23:10.0 112.6 48 55
56 Gracie Finke 11 Mesa Ridge (CO) 3 23:13.0 112.4 49 56
57 Eleanor Goldstein 11 Denver East (CO) 8 23:14.0 112.3 57
58 Emery Allshouse 11 Denver South (CO) 8 23:21.0 111.7 58
59 Baily Wright 12 Sand Creek (MI) 2 23:27.0 111.3 50 59
60 Lucinda Noble 10 Denver South (CO) 9 23:29.0 111.1 60
61 Naomi Rairdon 12 Heritage Christian (IN) 3 23:31.0 111.0 51 61
62 Ciara Baker 9 Castle View (CO) 1 23:33.0 110.8 52 62
63 Jayla Sanderson 12 Northfield (MN) 5 23:33.0 110.8 53 63
64 Leah Mather 10 Rangeview (CO) 4 23:34.0 110.7 54 64
65 Layla Jurow 10 Denver South (CO) 10 23:34.0 110.7 65
66 Teresa Sri 11 Machebeuf Bishop (CO) 3 23:35.0 110.7 66
67 Annie Roberds 9 Mesa Ridge (CO) 4 23:36.0 110.6 55 67
68 Kate Green 11 Heritage Christian (IN) 4 23:43.0 110.0 56 68
69 Gigi Carpinelli 10 Lutheran (CO) 1 23:43.0 110.0 57 69
70 Kayla Hatt 9 Ponderosa (OR) 3 23:56.0 109.0 58 70
71 Emily Handy 12 Strasburg (VA) 1 24:00.0 108.8 71
72 Leah Cormican 12 Middle Park (CO) 3 24:01.0 108.7 59 72
73 Sloan Wilson 9 Castle View (CO) 2 24:07.0 108.2 60 73
74 Kylee Boomer 10 Middle Park (CO) 4 24:07.0 108.2 61 74
75 Havana Herbert 9 Denver North (CO) 4 24:11.0 107.9 62 75
76 Maddie Tolman 10 Rampart (CO) 5 24:19.0 107.3 63 76
77 Kate Little 11 Thomas Jefferson (WA) 1 24:20.0 107.3 64 77
78 Alaina Mears 10 Middle Park (CO) 5 24:23.0 107.1 65 78
79 Marie Jordan 10 Strasburg (VA) 2 24:28.0 106.7 79
80 Mackenzie Woyte 10 Rampart (CO) 6 24:29.0 106.6 66 80
81 Grace Null 10 Mesa Ridge (CO) 5 24:30.0 106.5 67 81
82 Rebekah Palmer 12 Lutheran (CO) 2 24:34.0 106.3 68 82
83 Myra Kirk 12 Denver North (CO) 5 24:35.0 106.2 69 83
84 Ashley Brick 10 Castle View (CO) 3 24:37.0 106.1 70 84
85 Melanie Ternlund 11 Rangeview (CO) 5 24:41.0 105.8 71 85
86 Liberty Dorman 11 Lutheran (CO) 3 24:42.0 105.7 72 86
87 Faith Collins 12 Ponderosa (OR) 4 24:44.0 105.6 73 87
88 Lily Emmanuel 11 Denver West (CO) 1 24:47.0 105.3 88
89 Addy Herl 9 Lutheran (CO) 4 24:47.0 105.3 74 89
90 Kelsey Dennis 11 Northfield (MN) 6 24:50.0 105.2 75 90
91 Kaitlin Close 10 Rampart (CO) 7 24:50.0 105.2 76 91
92 Shae Valkner 9 Ponderosa (OR) 5 25:08.0 103.9 77 92
93 Ava King 9 Castle View (CO) 4 25:15.0 103.4 78 93
94 Claire Brouillette 9 Lutheran (CO) 5 25:24.0 102.8 79 94
95 Charliray Jackson 12 Strasburg (VA) 3 25:27.0 102.6 95
96 Emma Parrish 10 Castle View (CO) 5 25:36.0 102.0 80 96
97 Dallice Williams 12 Sand Creek (MI) 3 25:36.0 102.0 81 97
98 Abby Soderquist 11 Lutheran (CO) 6 25:55.0 100.8 82 98
99 Heaven-Leana King 9 Rampart (CO) 8 26:16.0 99.4 99
100 Tessa Houser 12 Sand Creek (MI) 4 26:22.0 99.1 83 100
101 Alexandra Rodriguez 9 Ponderosa (OR) 6 26:36.0 98.2 84 101
102 Angel Tinoco 10 Denver West (CO) 2 26:39.0 98.0 102
103 Anyssa Mertz 10 Mesa Ridge (CO) 6 26:43.0 97.8 85 103
104 Moriah Walton 9 Castle View (CO) 6 26:46.0 97.6 86 104
105 Landree Wilson 12 Heritage Christian (IN) 5 26:53.0 97.2 87 105
106 Elisa Cardona-lamas 12 KIPP Northeast (Regis Groff) (CO) 1 27:05.0 96.4 106
107 Gabrielle Borchard 12 Mesa Ridge (CO) 7 27:30.0 95.0 88 107
108 LIZZIE LEE 12 Heritage Christian (IN) 6 27:35.0 94.7 89 108
109 Corrina Marquez 10 Rampart (CO) 9 27:37.0 94.6 109
110 Charlotte Connor 11 Thomas Jefferson (WA) 2 27:40.0 94.4 90 110
111 Gillian Beck 10 Kent Denver (CO) 5 27:43.0 94.2 91 111
112 Marissa McGinley 10 Heritage Christian (IN) 7 27:49.0 94.0 92 112
113 Zofia Paziewska 11 Thomas Jefferson (WA) 3 28:30.0 91.7 93 113
114 Ainsley Slocum 11 Rangeview (CO) 6 28:51.0 90.6 94 114
115 Ailyn Garcia-casillas 9 KIPP Northeast (Regis Groff) (CO) 2 29:27.0 88.8 115
116 Allie Gragg 10 Harrison (GA) 1 29:46.0 87.8 116
117 Lorelai Le fors 10 Strasburg (VA) 4 30:04.0 87.0 117
118 Ada Youngstrom 12 Denver North (CO) 6 30:05.0 86.9 95 118
119 Brady Vinlove 10 Thomas Jefferson (WA) 4 30:06.0 86.9 96 119
120 Emily Brown 10 Thomas Jefferson (WA) 5 30:12.0 86.6 97 120
121 Emmajyn Walker 12 Rangeview (CO) 7 30:20.0 86.2 98 121
122 Amara Demetrelis 11 Sand Creek (MI) 5 30:26.0 85.9 99 122
123 Dagny Colle 11 Front Range Christian (CO) 1 30:57.0 84.5 123
124 Tati-anna Avitia 11 Adams City (CO) 1 31:01.0 84.3 124
125 Maya Samuels 9 Kent Denver (CO) 6 31:30.0 83.0 100 125
126 April Quiroz 11 Adams City (CO) 2 33:03.0 79.2 126
127 Jenny Ruano 9 Denver West (CO) 3 33:35.0 127
128 Kayla Hernandez 12 DSST: College View (CO) 1 33:59.0 77.0 128
129 Anneliese Goetz 11 Thomas Jefferson (WA) 6 34:07.0 76.7 101 129
130 Lillyin Williamsen 9 Thomas Jefferson (WA) 1 37:04.0 70.7 130